• In Deutschland
  • Länderverzeichnis
  • Für 7 Tage
  • Wassertemperatur
  • Satellitenkarten
  • Wetterkarte
  • Widgets
  • user-avatar
    Anmelden

    Stündliche Wetter Wien

    Heute, 30 Mai, Dienstag

    Zeit Temperatur Niederschläge Wind Luftdruck Luftfeuchtigkeit
    00:00 +18°C° 0 mm 1 m/S 742 mmHg 90%
    01:00 +16°C° 0 mm 1 m/S 742 mmHg 89%
    02:00 +16°C° 0 mm 1 m/S 742 mmHg 88%
    03:00 +16°C° 0 mm 1 m/S 742 mmHg 88%
    04:00 +15°C° 0 mm 1 m/S 741 mmHg 88%
    05:00 +19°C° 0 mm 1 m/S 742 mmHg 83%
    06:00 +21°C° 0 mm 1 m/S 742 mmHg 77%
    07:00 +23°C° 0 mm 1 m/S 742 mmHg 71%
    08:00 +25°C° 0 mm 1 m/S 742 mmHg 66%
    09:00 +26°C° 0 mm 1 m/S 742 mmHg 60%
    10:00 +28°C° 0 mm 2 m/S 742 mmHg 55%
    11:00 +29°C° 0 mm 2 m/S 742 mmHg 52%
    12:00 +30°C° 0 mm 2 m/S 742 mmHg 50%
    13:00 +31°C° 0 mm 2 m/S 742 mmHg 48%
    14:00 +30°C° 0 mm 3 m/S 742 mmHg 49%
    15:00 +30°C° 0 mm 3 m/S 742 mmHg 51%
    16:00 +30°C° 0 mm 3 m/S 741 mmHg 52%
    17:00 +29°C° 0,1 mm 2 m/S 741 mmHg 60%
    18:00 +27°C° 0,1 mm 2 m/S 741 mmHg 69%
    19:00 +25°C° 0,1 mm 2 m/S 741 mmHg 77%
    20:00 +24°C° 0,2 mm 2 m/S 742 mmHg 80%
    21:00 +21°C° 0,2 mm 2 m/S 742 mmHg 83%
    22:00 +20°C° 0,2 mm 2 m/S 742 mmHg 86%
    23:00 +20°C° 0,1 mm 2 m/S 742 mmHg 86%

    Morgen, 31 Mai, Mittwoch

    Zeit Temperatur Niederschläge Wind Luftdruck Luftfeuchtigkeit
    00:00 +20°C° 0,1 mm 3 m/S 742 mmHg 86%
    01:00 +20°C° 0,1 mm 3 m/S 743 mmHg 86%
    02:00 +20°C° 0,4 mm 3 m/S 743 mmHg 87%
    03:00 +20°C° 0,4 mm 3 m/S 743 mmHg 88%
    04:00 +20°C° 0,4 mm 4 m/S 743 mmHg 89%
    05:00 +20°C° 0,1 mm 4 m/S 743 mmHg 86%
    06:00 +21°C° 0,1 mm 4 m/S 744 mmHg 83%
    07:00 +22°C° 0,1 mm 5 m/S 744 mmHg 80%
    08:00 +25°C° 0,1 mm 5 m/S 744 mmHg 74%
    09:00 +26°C° 0,1 mm 5 m/S 744 mmHg 68%
    10:00 +27°C° 0,1 mm 5 m/S 744 mmHg 62%
    11:00 +28°C° 0,3 mm 5 m/S 744 mmHg 61%
    12:00 +28°C° 0,3 mm 4 m/S 744 mmHg 59%
    13:00 +28°C° 0,3 mm 4 m/S 744 mmHg 58%
    14:00 +28°C° 0,6 mm 4 m/S 744 mmHg 61%
    15:00 +28°C° 0,6 mm 4 m/S 744 mmHg 63%
    16:00 +27°C° 0,6 mm 3 m/S 744 mmHg 66%
    17:00 +26°C° 0,4 mm 3 m/S 744 mmHg 71%
    18:00 +24°C° 0,4 mm 2 m/S 744 mmHg 77%
    19:00 +23°C° 0,4 mm 2 m/S 744 mmHg 82%
    20:00 +21°C° 0,2 mm 2 m/S 744 mmHg 84%
    21:00 +20°C° 0,2 mm 2 m/S 745 mmHg 86%
    22:00 +18°C° 0,2 mm 2 m/S 745 mmHg 88%
    23:00 +18°C° 0,2 mm 2 m/S 745 mmHg 88%

    übermorgen, 1 Juni, Donnerstag

    Zeit Temperatur Niederschläge Wind Luftdruck Luftfeuchtigkeit
    00:00 +18°C° 0,2 mm 2 m/S 745 mmHg 88%
    01:00 +17°C° 0,2 mm 2 m/S 745 mmHg 88%
    02:00 +17°C° 0 mm 2 m/S 745 mmHg 89%
    03:00 +16°C° 0 mm 2 m/S 745 mmHg 89%
    04:00 +16°C° 0 mm 2 m/S 745 mmHg 90%
    05:00 +17°C° 0 mm 2 m/S 746 mmHg 87%
    06:00 +18°C° 0 mm 2 m/S 746 mmHg 84%
    07:00 +19°C° 0 mm 2 m/S 746 mmHg 81%
    08:00 +20°C° 0 mm 2 m/S 746 mmHg 75%
    09:00 +21°C° 0 mm 2 m/S 746 mmHg 69%
    10:00 +24°C° 0 mm 3 m/S 747 mmHg 63%
    11:00 +24°C° 0,1 mm 3 m/S 746 mmHg 61%
    12:00 +25°C° 0,1 mm 3 m/S 746 mmHg 60%
    13:00 +26°C° 0,1 mm 3 m/S 746 mmHg 58%
    14:00 +25°C° 0,1 mm 3 m/S 746 mmHg 58%
    15:00 +25°C° 0,1 mm 3 m/S 746 mmHg 59%
    16:00 +25°C° 0,1 mm 3 m/S 746 mmHg 59%
    17:00 +24°C° 0,1 mm 2 m/S 746 mmHg 64%
    18:00 +23°C° 0,1 mm 2 m/S 746 mmHg 70%
    19:00 +20°C° 0,1 mm 2 m/S 745 mmHg 76%
    20:00 +19°C° 0 mm 2 m/S 746 mmHg 76%
    21:00 +17°C° 0 mm 2 m/S 746 mmHg 77%
    22:00 +16°C° 0 mm 2 m/S 746 mmHg 78%
    23:00 +15°C° 0 mm 2 m/S 746 mmHg 80%

    2 Juni, Freitag

    Zeit Temperatur Niederschläge Wind Luftdruck Luftfeuchtigkeit
    00:00 +14°C° 0 mm 1 m/S 746 mmHg 81%
    01:00 +13°C° 0 mm 1 m/S 746 mmHg 83%
    02:00 +13°C° 0 mm 1 m/S 746 mmHg 83%
    03:00 +13°C° 0 mm 1 m/S 746 mmHg 83%
    04:00 +12°C° 0 mm 1 m/S 746 mmHg 84%
    05:00 +14°C° 0 mm 1 m/S 746 mmHg 78%
    06:00 +16°C° 0 mm 1 m/S 746 mmHg 73%
    07:00 +19°C° 0 mm 1 m/S 746 mmHg 67%
    08:00 +20°C° 0 mm 1 m/S 746 mmHg 63%
    09:00 +22°C° 0 mm 1 m/S 746 mmHg 58%
    10:00 +24°C° 0 mm 1 m/S 746 mmHg 53%
    11:00 +24°C° 0 mm 1 m/S 746 mmHg 52%
    12:00 +25°C° 0 mm 2 m/S 745 mmHg 51%
    13:00 +26°C° 0 mm 2 m/S 745 mmHg 50%
    14:00 +26°C° 0 mm 2 m/S 745 mmHg 52%
    15:00 +26°C° 0 mm 2 m/S 745 mmHg 54%
    16:00 +26°C° 0 mm 2 m/S 744 mmHg 56%
    17:00 +25°C° 0 mm 2 m/S 744 mmHg 63%
    18:00 +24°C° 0 mm 2 m/S 744 mmHg 69%
    19:00 +23°C° 0 mm 1 m/S 744 mmHg 76%
    20:00 +20°C° 0 mm 2 m/S 744 mmHg 78%
    21:00 +19°C° 0 mm 2 m/S 744 mmHg 81%
    22:00 +18°C° 0 mm 2 m/S 744 mmHg 84%
    23:00 +17°C° 0 mm 2 m/S 744 mmHg 84%

    3 Juni, Samstag

    Zeit Temperatur Niederschläge Wind Luftdruck Luftfeuchtigkeit
    00:00 +17°C° 0 mm 2 m/S 743 mmHg 85%
    01:00 +17°C° 0 mm 2 m/S 743 mmHg 86%
    02:00 +16°C° 0 mm 1 m/S 743 mmHg 87%
    03:00 +16°C° 0 mm 1 m/S 743 mmHg 88%
    04:00 +15°C° 0 mm 1 m/S 743 mmHg 90%
    05:00 +18°C° 0 mm 1 m/S 743 mmHg 85%
    06:00 +20°C° 0 mm 1 m/S 743 mmHg 80%
    07:00 +22°C° 0 mm 1 m/S 743 mmHg 76%
    08:00 +24°C° 0 mm 2 m/S 743 mmHg 72%
    09:00 +25°C° 0 mm 2 m/S 743 mmHg 67%
    10:00 +27°C° 0 mm 3 m/S 743 mmHg 63%
    11:00 +27°C° 0,4 mm 3 m/S 743 mmHg 62%
    12:00 +28°C° 0,4 mm 3 m/S 743 mmHg 60%
    13:00 +29°C° 0,4 mm 3 m/S 743 mmHg 58%
    14:00 +29°C° 0,5 mm 3 m/S 742 mmHg 59%
    15:00 +29°C° 0,5 mm 3 m/S 742 mmHg 60%
    16:00 +29°C° 0,5 mm 2 m/S 742 mmHg 61%
    17:00 +27°C° 0,2 mm 2 m/S 742 mmHg 66%
    18:00 +26°C° 0,2 mm 2 m/S 742 mmHg 72%
    19:00 +25°C° 0,2 mm 2 m/S 742 mmHg 78%
    20:00 +23°C° 0 mm 2 m/S 742 mmHg 80%
    21:00 +21°C° 0 mm 2 m/S 742 mmHg 83%
    22:00 +20°C° 0 mm 2 m/S 742 mmHg 85%
    23:00 +19°C° 0 mm 2 m/S 742 mmHg 86%

    4 Juni, Sonntag

    Zeit Temperatur Niederschläge Wind Luftdruck Luftfeuchtigkeit
    00:00 +19°C° 0 mm 2 m/S 742 mmHg 88%
    01:00 +18°C° 0 mm 2 m/S 742 mmHg 89%
    02:00 +18°C° 0 mm 2 m/S 742 mmHg 89%
    03:00 +17°C° 0 mm 2 m/S 741 mmHg 90%
    04:00 +17°C° 0 mm 2 m/S 741 mmHg 91%
    05:00 +19°C° 0 mm 2 m/S 741 mmHg 86%
    06:00 +21°C° 0 mm 3 m/S 742 mmHg 81%
    07:00 +22°C° 0 mm 3 m/S 742 mmHg 77%
    08:00 +25°C° 0 mm 4 m/S 742 mmHg 70%
    09:00 +27°C° 0 mm 4 m/S 742 mmHg 64%
    10:00 +29°C° 0 mm 5 m/S 742 mmHg 58%
    11:00 +29°C° 0 mm 5 m/S 741 mmHg 55%
    12:00 +30°C° 0 mm 5 m/S 741 mmHg 53%
    13:00 +32°C° 0 mm 5 m/S 741 mmHg 50%
    14:00 +32°C° 0 mm 5 m/S 740 mmHg 51%
    15:00 +32°C° 0 mm 5 m/S 740 mmHg 52%
    16:00 +30°C° 0 mm 5 m/S 740 mmHg 53%
    17:00 +29°C° 0 mm 5 m/S 739 mmHg 60%
    18:00 +27°C° 0 mm 4 m/S 739 mmHg 67%
    19:00 +26°C° 0 mm 3 m/S 739 mmHg 74%
    20:00 +25°C° 0 mm 3 m/S 739 mmHg 78%
    21:00 +22°C° 0 mm 3 m/S 739 mmHg 82%
    22:00 +21°C° 0 mm 3 m/S 739 mmHg 85%
    23:00 +21°C° 0 mm 3 m/S 739 mmHg 87%
    Mehr zeigen